This demonstration page uses our WeatherBlox Daily Observations layout. Learn more.

Left ArrowRight Arrow

38.20091, -84.87328

Hourly Observations for September 29, 2022

Temp ( °F °C ) Dew Point ( °F °C ) Humidity (%) Winds ( mph kmh ) Pressure ( in mb ) Visibility ( mi km ) Precip ( " mm )
12:53 am 00:53 Clear 51 10.6 43 6.1 74 74 NNE 3 6 30.42 1030 10 16 0.00 0.00
1:53 am 01:53 Clear 49 9.4 43 6.1 80 80 N 5 7 30.41 1030 10 16 0.00 0.00
2:53 am 02:53 Clear 49 9.4 43 6.1 80 80 N 3 6 30.40 1030 10 16 0.00 0.00
3:53 am 03:53 Clear 47 8.3 42 5.6 83 83 N 5 7 30.40 1030 10 16 0.00 0.00
4:53 am 04:53 Clear 46 7.8 42 5.6 86 86 N 3 6 30.40 1030 10 16 0.00 0.00
5:53 am 05:53 Clear 46 7.8 42 5.6 86 86 N 5 7 30.40 1030 10 16 0.00 0.00
6:53 am 06:53 Clear 46 7.8 42 5.6 86 86 N 5 7 30.40 1029 10 16 0.00 0.00
7:53 am 07:53 Sunny 45 7.2 42 5.6 90 90 N 3 6 30.41 1030 10 16 0.00 0.00
8:53 am 08:53 Sunny 49 9.4 44 6.7 83 83 NE 5 7 30.42 1030 10 16 0.00 0.00
9:53 am 09:53 Sunny 53 11.7 47 8.3 80 80 ENE 9 15 30.42 1030 10 16 0.00 0.00
10:27 am 10:27 Mostly Cloudy 57 13.9 48 8.9 72 72 E 10 17 30.42 1030 10 16 0.00 0.00
10:53 am 10:53 Mostly Cloudy 58 14.4 49 9.4 72 72 ENE 13 20 30.42 1030 10 16 0.00 0.00
11:36 am 11:36 Mostly Sunny 61 16.1 48 8.9 62 62 ENE 12 19 30.41 1030 10 16 0.00 0.00
11:53 am 11:53 Partly Cloudy 63 17.2 48 8.9 58 58 ENE 12 19 30.42 1030 10 16 0.00 0.00
12:26 pm 12:26 Mostly Cloudy 63 17.2 47 8.3 56 56 ENE 12 19 30.40 1029 10 16 0.00 0.00
12:38 pm 12:38 Partly Cloudy 62 16.7 47 8.3 58 58 ENE 10 17 30.40 1029 10 16 0.00 0.00
12:53 pm 12:53 Mostly Sunny 65 18.3 47 8.3 52 52 E 9 15 30.40 1029 10 16 0.00 0.00
1:53 pm 13:53 Mostly Cloudy 66 18.9 46 7.8 48 48 N 10 17 30.38 1029 10 16 0.00 0.00
2:53 pm 14:53 Mostly Cloudy 67 19.4 46 7.8 47 47 NNE 9 15 30.34 1028 10 16 0.00 0.00
3:53 pm 15:53 Mostly Sunny 69 20.6 45 7.2 42 42 NE 12 19 30.31 1027 10 16 0.00 0.00
4:53 pm 16:53 Sunny 67 19.4 45 7.2 45 45 ENE 16 26 30.31 1026 10 16 0.00 0.00
5:53 pm 17:53 Sunny 63 17.2 46 7.8 54 54 ENE 16 26 30.31 1027 10 16 0.00 0.00
6:53 pm 18:53 Sunny 61 16.1 45 7.2 56 56 ENE 9 15 30.29 1026 10 16 0.00 0.00
7:53 pm 19:53 Clear 58 14.4 46 7.8 65 65 NNE 3 6 30.29 1026 10 16 0.00 0.00
8:53 pm 20:53 Clear 50 10 45 7.2 83 83 Calm 30.29 1026 10 16 0.00 0.00
9:53 pm 21:53 Clear 53 11.7 46 7.8 77 77 N 3 6 30.29 1026 10 16 0.00 0.00
10:53 pm 22:53 Clear 54 12.2 46 7.8 74 74 NE 7 11 30.29 1026 10 16 0.00 0.00
11:53 pm 23:53 Clear 53 11.7 46 7.8 77 77 ENE 8 13 30.29 1026 10 16 0.00 0.00

Powered by AerisWeather